| time (UTC) | temp F | wind direction | speed MPH | gust MPH | rain 1hr in | rain 24hr in | rain mn in | humidity % | barometer mb |
| 20260508060003 | 46 | 0 | 0.0 | 0.0 | 0.00 | 0.03 | 0.00 | 99 | 1015.4 |
| 20260508054503 | 46 | 203 | 0.0 | 1.0 | 0.00 | 0.03 | 0.00 | 99 | 1015.2 |
| 20260508053218 | 45 | 0 | 0.0 | 0.0 | 0.00 | 0.03 | 0.00 | 99 | 1015.2 |
| 20260508051717 | 45 | 199 | 0.0 | 2.0 | 0.00 | 0.03 | 0.00 | 97 | 1015.1 |
| 20260508050003 | 45 | 0 | 0.0 | 0.0 | 0.00 | 0.03 | 0.00 | 97 | 1015.2 |
| 20260508044503 | 44 | 0 | 0.0 | 0.0 | 0.00 | 0.03 | 0.00 | 97 | 1015.0 |
| 20260508043003 | 45 | 0 | 0.0 | 0.0 | 0.00 | 0.03 | 0.00 | 97 | 1015.0 |
| 20260508041503 | 45 | 0 | 0.0 | 0.0 | 0.00 | 0.03 | 0.00 | 97 | 1015.0 |
| 20260508040003 | 45 | 0 | 0.0 | 0.0 | 0.00 | 0.03 | 0.00 | 97 | 1015.0 |
| 20260508034503 | 45 | 0 | 0.0 | 0.0 | 0.00 | 0.03 | 0.00 | 97 | 1015.0 |
| 20260508033003 | 45 | 0 | 0.0 | 0.0 | 0.00 | 0.03 | 0.00 | 97 | 1014.9 |
| 20260508031503 | 45 | 0 | 0.0 | 0.0 | 0.00 | 0.03 | 0.00 | 95 | 1015.0 |
| 20260508030219 | 45 | 0 | 0.0 | 0.0 | 0.00 | 0.03 | 0.00 | 97 | 1014.9 |
| 20260508024503 | 46 | 0 | 0.0 | 0.0 | 0.00 | 0.03 | 0.00 | 95 | 1015.1 |
| 20260508023217 | 46 | 0 | 0.0 | 0.0 | 0.00 | 0.03 | 0.00 | 95 | 1015.0 |
| 20260508021503 | 46 | 0 | 0.0 | 0.0 | 0.00 | 0.03 | 0.00 | 95 | 1014.9 |
| 20260508020003 | 46 | 0 | 0.0 | 0.0 | 0.00 | 0.03 | 0.00 | 95 | 1014.9 |
| 20260508014503 | 46 | 0 | 0.0 | 0.0 | 0.00 | 0.03 | 0.00 | 95 | 1014.9 |
| 20260508013003 | 46 | 0 | 0.0 | 0.0 | 0.00 | 0.03 | 0.00 | 95 | 1014.9 |
| 20260508011503 | 46 | 0 | 0.0 | 0.0 | 0.00 | 0.03 | 0.00 | 95 | 1014.9 |
| 20260508010003 | 46 | 0 | 0.0 | 0.0 | 0.00 | 0.03 | 0.00 | 95 | 1015.0 |
| 20260508004503 | 46 | 0 | 0.0 | 0.0 | 0.00 | 0.03 | 0.00 | 95 | 1015.1 |
| 20260508003216 | 46 | 0 | 0.0 | 0.0 | 0.00 | 0.03 | 0.00 | 94 | 1015.1 |
| 20260508001503 | 46 | 0 | 0.0 | 0.0 | 0.00 | 0.03 | 0.00 | 94 | 1015.1 |
| 20260508000003 | 46 | 0 | 0.0 | 0.0 | 0.00 | 0.03 | 0.00 | 94 | 1015.1 |
| 20260507234503 | 46 | 0 | 0.0 | 0.0 | 0.00 | 0.03 | 0.03 | 94 | 1015.1 |
| 20260507233003 | 46 | 175 | 1.0 | 3.0 | 0.00 | 0.03 | 0.03 | 92 | 1015.1 |
| 20260507231503 | 46 | 0 | 0.0 | 0.0 | 0.00 | 0.03 | 0.03 | 92 | 1015.1 |
| 20260507230003 | 47 | 0 | 0.0 | 0.0 | 0.00 | 0.03 | 0.03 | 92 | 1015.1 |
| 20260507224504 | 47 | 0 | 0.0 | 0.0 | 0.00 | 0.03 | 0.03 | 91 | 1015.1 |
| 20260507223003 | 47 | 0 | 0.0 | 0.0 | 0.00 | 0.03 | 0.03 | 91 | 1015.0 |
| 20260507221503 | 48 | 0 | 0.0 | 0.0 | 0.00 | 0.03 | 0.03 | 91 | 1015.1 |
| 20260507220003 | 48 | 0 | 0.0 | 0.0 | 0.00 | 0.03 | 0.03 | 89 | 1015.0 |
| 20260507214716 | 48 | 0 | 0.0 | 0.0 | 0.00 | 0.03 | 0.03 | 89 | 1015.1 |
| 20260507213003 | 49 | 259 | 1.0 | 3.0 | 0.00 | 0.03 | 0.03 | 88 | 1015.1 |
| 20260507211503 | 49 | 189 | 4.0 | 6.0 | 0.00 | 0.03 | 0.03 | 86 | 1015.0 |
| 20260507210003 | 49 | 189 | 2.0 | 5.0 | 0.00 | 0.03 | 0.03 | 86 | 1014.8 |
| 20260507204503 | 49 | 177 | 4.0 | 6.0 | 0.00 | 0.03 | 0.03 | 86 | 1014.7 |
| 20260507203003 | 49 | 171 | 4.0 | 7.0 | 0.00 | 0.03 | 0.03 | 86 | 1014.6 |
| 20260507201717 | 49 | 176 | 6.0 | 8.0 | 0.00 | 0.03 | 0.03 | 86 | 1014.6 |
| 20260507200003 | 49 | 169 | 7.0 | 10.0 | 0.00 | 0.03 | 0.03 | 88 | 1014.3 |
| 20260507194503 | 49 | 172 | 9.0 | 13.0 | 0.00 | 0.03 | 0.03 | 89 | 1014.3 |
| 20260507193003 | 49 | 166 | 7.0 | 11.0 | 0.00 | 0.03 | 0.03 | 89 | 1014.2 |
| 20260507191503 | 49 | 176 | 8.0 | 12.0 | 0.00 | 0.03 | 0.03 | 91 | 1014.2 |
| 20260507190004 | 49 | 166 | 4.0 | 6.0 | 0.00 | 0.03 | 0.03 | 91 | 1014.1 |
| 20260507184503 | 50 | 172 | 5.0 | 8.0 | 0.00 | 0.03 | 0.03 | 91 | 1014.1 |
| 20260507183003 | 50 | 181 | 3.0 | 5.0 | 0.00 | 0.03 | 0.03 | 91 | 1014.0 |
| 20260507181717 | 51 | 233 | 0.0 | 2.0 | 0.00 | 0.03 | 0.03 | 91 | 1014.0 |
| 20260507180003 | 51 | 303 | 1.0 | 3.0 | 0.00 | 0.03 | 0.03 | 92 | 1013.8 |
| 20260507174503 | 51 | 179 | 2.0 | 5.0 | 0.00 | 0.03 | 0.03 | 91 | 1013.9 |
| 20260507173003 | 51 | 165 | 2.0 | 4.0 | 0.00 | 0.03 | 0.03 | 91 | 1014.0 |
| 20260507171503 | 51 | 166 | 2.0 | 5.0 | 0.00 | 0.03 | 0.03 | 91 | 1014.0 |
| 20260507170003 | 52 | 161 | 0.0 | 3.0 | 0.02 | 0.03 | 0.03 | 92 | 1014.1 |
| 20260507164718 | 51 | 182 | 3.0 | 5.0 | 0.03 | 0.03 | 0.03 | 92 | 1014.1 |
| 20260507163003 | 50 | 172 | 4.0 | 6.0 | 0.03 | 0.03 | 0.03 | 89 | 1014.2 |
| 20260507161503 | 50 | 200 | 6.0 | 9.0 | 0.03 | 0.03 | 0.03 | 86 | 1014.3 |
| 20260507160003 | 51 | 228 | 7.0 | 15.0 | 0.01 | 0.01 | 0.01 | 84 | 1014.4 |
| 20260507154503 | 53 | 259 | 10.0 | 14.0 | 0.00 | 0.00 | 0.00 | 75 | 1014.3 |
| 20260507153003 | 56 | 264 | 3.0 | 8.0 | 0.00 | 0.00 | 0.00 | 63 | 1014.0 |
| 20260507151503 | 56 | 284 | 2.0 | 5.0 | 0.00 | 0.00 | 0.00 | 62 | 1013.9 |
| 20260507150218 | 56 | 181 | 6.0 | 13.0 | 0.00 | 0.00 | 0.00 | 59 | 1013.9 |
| 20260507144503 | 57 | 128 | 4.0 | 9.0 | 0.00 | 0.00 | 0.00 | 63 | 1013.9 |
| 20260507143003 | 57 | 123 | 5.0 | 17.0 | 0.00 | 0.00 | 0.00 | 61 | 1014.0 |
| 20260507141503 | 57 | 192 | 7.0 | 18.0 | 0.00 | 0.00 | 0.00 | 61 | 1014.2 |
| 20260507140003 | 58 | 195 | 6.0 | 19.0 | 0.00 | 0.00 | 0.00 | 59 | 1014.3 |
| 20260507134503 | 58 | 134 | 4.0 | 12.0 | 0.00 | 0.00 | 0.00 | 62 | 1014.2 |
| 20260507133003 | 59 | 179 | 6.0 | 14.0 | 0.00 | 0.00 | 0.00 | 61 | 1014.3 |
| 20260507131503 | 59 | 119 | 4.0 | 12.0 | 0.00 | 0.00 | 0.00 | 66 | 1014.3 |
| 20260507130003 | 58 | 154 | 4.0 | 12.0 | 0.00 | 0.00 | 0.00 | 63 | 1014.5 |
| 20260507124503 | 58 | 199 | 5.0 | 18.0 | 0.00 | 0.00 | 0.00 | 63 | 1014.5 |
| 20260507123003 | 57 | 189 | 6.0 | 12.0 | 0.00 | 0.00 | 0.00 | 61 | 1014.7 |
| 20260507121503 | 59 | 127 | 5.0 | 13.0 | 0.00 | 0.00 | 0.00 | 64 | 1014.6 |
| 20260507120003 | 59 | 143 | 3.0 | 11.0 | 0.00 | 0.00 | 0.00 | 58 | 1014.6 |
| 20260507114503 | 59 | 127 | 6.0 | 13.0 | 0.00 | 0.00 | 0.00 | 59 | 1014.7 |
| 20260507113219 | 58 | 137 | 5.0 | 13.0 | 0.00 | 0.00 | 0.00 | 67 | 1014.9 |
| 20260507111503 | 57 | 140 | 3.0 | 9.0 | 0.00 | 0.00 | 0.00 | 66 | 1015.0 |
| 20260507110003 | 54 | 192 | 6.0 | 11.0 | 0.00 | 0.00 | 0.00 | 75 | 1015.2 |
| 20260507104503 | 53 | 179 | 3.0 | 9.0 | 0.00 | 0.00 | 0.00 | 75 | 1015.3 |
| 20260507103003 | 52 | 2 | 2.0 | 8.0 | 0.00 | 0.00 | 0.00 | 76 | 1015.3 |
| 20260507101503 | 51 | 103 | 3.0 | 8.0 | 0.00 | 0.00 | 0.00 | 78 | 1015.4 |
| 20260507100003 | 51 | 97 | 1.0 | 8.0 | 0.00 | 0.00 | 0.00 | 79 | 1015.4 |
| 20260507094503 | 50 | 212 | 0.0 | 9.0 | 0.00 | 0.00 | 0.00 | 79 | 1015.4 |
| 20260507093003 | 49 | 201 | 4.0 | 9.0 | 0.00 | 0.00 | 0.00 | 81 | 1015.4 |
| 20260507091503 | 49 | 281 | 2.0 | 4.0 | 0.00 | 0.00 | 0.00 | 84 | 1015.4 |
| 20260507090004 | 47 | 92 | 0.0 | 3.0 | 0.00 | 0.00 | 0.00 | 85 | 1015.5 |
| 20260507084719 | 46 | 59 | 1.0 | 3.0 | 0.00 | 0.00 | 0.00 | 88 | 1015.5 |
| 20260507083003 | 46 | 329 | 1.0 | 2.0 | 0.00 | 0.00 | 0.00 | 89 | 1015.5 |
| 20260507081717 | 45 | 262 | 1.0 | 3.0 | 0.00 | 0.00 | 0.00 | 91 | 1015.5 |
| 20260507080003 | 44 | 0 | 0.0 | 1.0 | 0.00 | 0.00 | 0.00 | 91 | 1015.5 |
| 20260507074503 | 44 | 45 | 1.0 | 2.0 | 0.00 | 0.00 | 0.00 | 92 | 1015.5 |
| 20260507073003 | 44 | 37 | 1.0 | 2.0 | 0.00 | 0.00 | 0.00 | 92 | 1015.5 |
| 20260507071716 | 44 | 58 | 2.0 | 3.0 | 0.00 | 0.00 | 0.00 | 92 | 1015.4 |
| 20260507070005 | 43 | 77 | 1.0 | 3.0 | 0.00 | 0.00 | 0.00 | 92 | 1015.2 |
| 20260507064503 | 43 | 67 | 1.0 | 6.0 | 0.00 | 0.00 | 0.00 | 94 | 1015.1 |
| 20260507063003 | 43 | 98 | 1.0 | 4.0 | 0.00 | 0.00 | 0.00 | 94 | 1015.1 |
| 20260507061503 | 43 | 114 | 2.0 | 7.0 | 0.00 | 0.00 | 0.00 | 94 | 1015.1 |